User: anonymous   Login
Location: Weston
(26.1283°N, 80.4075°W)
Time: 02:15:05
(UTC-05:00)
Language:

H-2A R/B - Orbit

View from above orbital plane
View from above orbital plane
View from above satellite
View from above satellite

Ground track
Ground track

The orbit data is extracted from the following two-line orbital elements,

1 26899U 01038B   14325.40253278  .00001731  00000-0  50021-3 0   794
2 26899 028.0571 084.2957 7150853 290.2992 015.6115 02.44103716113367
Epoch (UTC): 21 November 2014 09:39:38
Eccentricity: 0.7150853
inclination: 28.0571°
perigee height: 260 km
apogee height: 33582 km
right ascension of ascending node: 84.2957°
argument of perigee: 290.2992°
revolutions per day: 2.44103716
mean anomaly at epoch: 15.6115°
orbit number at epoch: 11336

The dashed part of the orbit path shows where the satellite is in the earth's shadow,  

DLR